Погода в Полтавке

Погода в Полтавке : погода сейчас, прогноз погоды и архив. Всё, что Вы хотите узнать о погоде в Полтавке!

Хотите узнать прогноз погоды в Полтавке? Тогда Вам сюда: Погода в Полтавке

Поиск расширенной информации на нашем сайте:

Полезная информация: Вывеска светящаяся цена агентство наружной рекламы цены.

Другие новости

Новости СМИ2

Главная страница сайта

Новости сайта

02.10.2013

Напоминаем, что на нашем новом сайте вы можете получить высокодетализированные прогнозы погоды по пунктам России, СНГ и мира (включающие важные для авиации метеовеличины, такие как направление и скорость ветра, видимость, явления погоды, количество и форма облачности, нижняя и верхняя граница облачности), а также ознакомиться с разнообразными материалами по авиационной метеорологии и подборкой полезных ссылок на эту тему.

Сайт Метеоцентр.Азия посвящён разработке технологий оптимизации авиаметеорологического обслуживания, включая проектирование и перспективное создание нескольких автоматизированных авиаметеорологических систем:
- система выпуска высокодетальных прогностических карт явлений погоды для нижнего воздушного пространства по России и ближнему зарубежью;
- система верификации прогнозов TAF (выпускаемых синоптиками официальных АМСГ РФ и ближнего зарубежья) и AUTOTAF (выпускаемых сайтом Метеоцентр.Азия) - выявление ошибок, онлайн-сопоставление с фактической погодой METAR, автоматическое внесение коррективов в прогнозы при резком отклонении фактической погоды от прогноза, подсчёт оправдываемости прогнозов по элементам и в целом;
- система обработки, анализа и отображения авиаметеорологической информации для применения провайдерами метеорологической информации.

Рекомендуем: Товары и услуги система управления умный дом.

Погода в Полтавке - сегодня

Время (UTC), дата Ветер
(°,м/с) 
Видим.   Явления Облачность Т
(°С)
Тd
(°С)
f(%) Тe
(°С)
Pmin
(гПа)
dP
(гПа)
Po
(мм)
O2
(г/м3)
Тmin Tmax R s Состояние
почвы
00 21.02.17 250 (З) 7-14{15}  10 км  позёмок  10/10 420 м 
[St]
-0.5 -2.2 88 -4  1006.7  -1.3  743  300           
03 21.02.17 250 (З) 7-11{14}  20000 м  позёмок{морось} [диам. гололёда 2 мм]  10/10 630 м 
[St]
-0.3 -2.5 85 -4  1007.1  0.4  744  300  -7.7    30  равномерный
сухой снег
100% 
06 21.02.17 250 (З) 7-14{15}  20000 м  позёмок{морось} [диам. гололёда 0 мм]  10/10 300 м 
[St]
-0.2 -2.3 86 -4  1008.2  1.1  745  300           
09 21.02.17 260 (З) 8-14{16}  20000 м    10/10 300 м 
[St]
+0.3 -2.1 84 -4  1008.8  0.6  745  300           
12 21.02.17 260 (З) 7-12{15}  20000 м    10/10 540 м 
[St]
-0.2 -2.9 82 -4  1010.1  1.3  746  301           
15 21.02.17 250 (З) 7-11{14}  10 км  позёмок  10/10 630 м 
[St]
-0.7 -3.4 82 -5  1011.8  1.6  747  302    +0.4       
18 21.02.17 240 (ЮЗ) 8-13{15}  4000 м  слаб. снег  10/10 360 м 
[Ns]
-0.9 -3.4 83 -5  1012.4  0.6  748  303           
21 21.02.17 250 (З) 7-13{13}  10 км  позёмок{снег}  10/10 360 м 
[St]
-1.8 -4.1 84 -6  1013.2  0.7  748  304           
00 22.02.17 250 (З) 6-13{15}  10 км  позёмок  10/10 270 м 
[St]
-2.4 -4.4 86 -6  1014.9  1.7  749  305           
03 22.02.17 250 (З) 6-10{14}  20000 м  позёмок  10/10 300 м 
[St]
-3.1 -5.1 86 -7  1016.3  1.3  750  306  -3.6    0.0  30  равномерный
сухой снег
100% 
06 22.02.17 240 (ЮЗ) 6-10{12}  20000 м  позёмок  3/0 средняя 
[Ac trans]
-3.7 -7.1 77 -8  1018.1  1.7  752  308  -4.8         
09 22.02.17 230 (ЮЗ) 5{12}  20000 м    8/0 средняя, верхняя 
[Ac trans|Ci sp]
-1.6 -4.6 80 -5  1018.9  752  305           
12 22.02.17 250 (З) 7-11{12}  20000 м    10/0 средняя 
[Ac und]
-0.5 -4.2 76 -4  1019.8  0.9  753  304           
15 22.02.17 240 (ЮЗ) 7-12{12}  10 км  позёмок  10/0 средняя 
[Ac und]
-0.4 -4.1 76 -4  1020.9  1.1  754  305    -0.3       
18 22.02.17 240 (ЮЗ) 6-10{12}  10 км  позёмок  10/0 средняя 
[Ac As]
-2.1 -5.5 77 -6  1022.3  1.2  755  307           
21 22.02.17 220 (ЮЗ) 3{10}  10 км    6/0 средняя 
[Ac und]
-4.8 -7.6 81 -7  1023.4  756  311           
00 23.02.17 230 (ЮЗ) 10 км    ясно 
-7.7 -10.2 82 -11  1024.1  0.6  756  314           
03 23.02.17 190 (Ю) 20000 м    5/0 верхняя 
[Ci sp]
-9.2 -13.2 73 -12  1024.9  0.6  756  317  -9.7      30  равномерный
мокрый или
старый снег
100% 
06 23.02.17 200 (Ю) 20000 м    4/0 верхняя 
[Ci sp]
-7.5 -12.3 68 -11  1025.2  0.4  757  315  -10         
09 23.02.17 180 (Ю) 20000 м    3/0 верхняя 
[Ci sp]
-4.9 -10.1 67 -7  1024.8  -0.2  757  311           
12 23.02.17 160 (Ю) 20000 м    3/0 верхняя 
[Ci sp]
-5.6 -9 77 -9  1024.5  -0.3  756  312           
15 23.02.17 160 (Ю) 10 км    3/0 верхняя 
[Ci sp]
-8.6 -10.5 86 -12  1024.1  -0.6  756  316    -4.8       
18 23.02.17 170 (Ю) 10 км    ясно 
-10.2 -11.7 89 -13  1023.1  -1.1  755  317           
21 23.02.17 170 (Ю) 10 км    ясно 
-12.6 -14.4 86 -17  1022.4  -0.9  754  320           
00 24.02.17 180 (Ю) 10 км    ясно 
-14.1 -16.2 84 -16  1021.8  -0.7  754  322           
Время (UTC), дата Ветер
(°,м/с) 
Видим.   Явления Облачность Т
(°С)
Тd
(°С)
f(%) Тe
(°С)
Pmin
(гПа)
dP
(гПа)
Po
(мм)
O2
(г/м3)
Тmin Tmax R s Состояние
почвы

Для получения пояснительной информации подведите курсор к названию столбца.

ПОГОДА в Полтавке - архив

Всё, что Вы хотите узнать о погоде в Полтавке - удобно и подробно!

Выберите нужную дату (начиная с 1 января 2015* года) и нажмите кнопку "Найти".
Будут отображены архивные сводки погоды по пункту Полтавка, начиная с указанной даты.


Отображать данные в формате CSV (для использования в таблицах Excel)


Внимание! Наш архив погоды предназначен исключительно для личного некоммерческого использования в познавательных целях. Если Вам необходимы официальные справки о состоянии погоды (для производственных, юридических, коммерческих и т.п. целей), обращайтесь в органы Росгидромета.

*Примечание: данная дата относится к архиву по метеостанциям СССР (Россия, СНГ, Балтия).
Архив по метеостанциям Зарубежной Европы и Азии (кроме Китая) хранится 10 дней, по другим регионам земного шара (Китай, Африка, Америка, Австралия, Океания) - 1 день.

Полтавка - район местоположения метеостанции


Название, широта, долгота, высота метеостанции:
Полтавка 54.4°ш. 71.8°д. 125 м над ур. моря [Российская Федерация]

Дополнительная информация

В oтличие oт бoльшинства пoгoдных сайтoв мы публикуем пoдрoбную метеoинфoрмацию в детальнoм прoфессиoнальнoм фoрмате.

Характеристики температуры и влажнoсти вoздуха измеряются на высoте 2 м в тени вдали oт зданий и деревьев.
Скoрoсть ветра измеряется на высoте 10 м (на урoвне рoста челoвека скoрoсть ветра ниже в 1.5-2 раза). Если метеoстанция нахoдится в гoрoде или в лесу, тo скoрoсть ветра занижена на 2-4 м/с пo сравнению с oткрытым местoм. Скoрoсть ветра над акватoриями крупных рек и oзёр, а также на вершинах хoлмoв на 2-5 м/с выше, чем в oбычных услoвиях.
Атмoсфернoе давление в разных тoчках местнoсти мoжет значительнo oтличаться oт давления на метеoстанции, в зависимoсти oт услoвий рельефа (при пoдъёме на 10 м давление пoнижается примернo на 1 мм рт.ст.).